Theta_e
317 317 317 317 317 316 317 317 317 318 318 318 318 318 319 319 319 319 320 320 319 319 320 319 320 320 320 320 320 320 318 320 319 317 321 324 331 342 347 346 352 352 356 346 333 335 332 335 337 341 340 340 338 337 342 341 340 339 331 327 322 323 322 321 321 324 325 326 327 329 331 331 328 333 333 338 336 337 336 336 339 340 343 345 345 347 347 347
316 316 316 316 316 316 316 317 317 317 318 318 318 318 318 319 319 319 319 319 319 319 319 319 319 320 320 319 320 320 320 320 319 319 319 328 341 348 348 345 353 359 355 333 328 331 331 332 336 340 337 334 341 335 340 336 340 333 329 327 322 323 328 333 330 330 329 324 328 330 333 332 331 334 332 332 331 333 334 335 337 338 343 344 345 346 346 346
316 316 316 316 315 316 316 317 317 317 317 318 318 318 319 319 319 319 319 319 319 319 319 319 319 319 319 319 320 320 319 319 320 318 323 340 341 345 345 345 347 360 348 330 328 333 331 334 336 340 336 333 336 330 335 334 336 333 329 325 326 326 333 333 332 331 332 329 328 329 330 332 332 334 331 330 329 331 331 332 335 337 337 340 343 345 345 346
315 315 315 316 315 316 316 317 317 317 317 317 318 318 318 318 318 318 319 319 319 319 319 318 319 319 319 319 320 321 319 319 314 318 324 357 344 345 344 344 346 355 343 331 331 333 335 336 337 340 333 331 332 332 331 333 331 333 329 324 328 332 328 330 333 333 333 332 330 330 331 330 332 336 332 331 329 329 332 336 335 336 337 340 342 344 344 345
315 315 315 316 315 316 316 316 317 317 317 317 317 318 318 317 318 318 318 318 318 318 318 318 318 319 319 319 318 321 319 308 312 327 336 353 348 345 343 343 350 344 335 336 339 337 335 334 337 336 332 326 331 330 330 333 335 332 331 331 335 333 327 331 336 333 333 333 332 329 328 330 337 336 333 332 326 325 331 336 338 341 339 341 341 343 345 344
315 314 314 315 315 315 316 316 316 316 316 317 317 317 317 317 317 317 317 317 318 318 318 318 318 318 319 319 320 321 315 301 322 327 345 348 347 344 344 348 358 338 333 336 335 333 333 334 336 331 328 327 324 326 329 332 336 322 328 332 334 334 333 333 332 334 332 333 331 329 332 334 331 332 334 333 330 329 337 339 340 342 344 344 345 344 342 343
314 314 314 314 315 315 315 315 315 315 316 316 317 317 317 317 316 316 317 317 317 317 317 318 318 318 318 319 319 317 313 313 319 329 359 351 346 344 346 356 362 340 332 332 330 329 332 332 333 329 326 325 324 326 328 329 333 328 324 331 330 333 332 336 335 335 334 331 331 332 331 329 330 326 334 333 334 333 336 339 341 345 345 345 343 344 343 343
314 314 314 314 314 315 315 315 315 315 316 316 316 316 316 317 316 317 317 317 317 317 318 319 319 319 318 319 318 314 311 310 318 334 353 355 341 340 348 340 340 334 330 328 327 326 330 331 331 330 324 322 323 324 327 326 328 326 323 328 333 335 334 335 336 335 334 333 334 333 329 328 330 329 331 331 333 336 335 338 343 345 344 344 344 342 344 344
314 314 314 314 314 314 315 315 315 316 316 316 316 316 316 316 316 316 317 317 317 318 319 319 319 319 319 319 318 311 310 319 321 334 342 333 330 329 335 334 334 332 332 328 328 326 327 328 332 330 321 322 325 322 326 324 321 327 326 327 327 333 336 335 335 334 333 334 333 330 328 329 330 332 328 333 335 337 336 340 338 342 341 341 342 343 343 344
314 314 314 314 314 315 315 315 315 315 316 316 315 315 315 315 316 316 317 317 318 319 320 320 320 319 318 316 313 306 315 321 320 323 334 329 332 329 332 334 332 332 331 327 326 324 323 327 329 331 327 325 326 322 326 325 323 329 328 327 328 330 331 334 332 333 334 332 333 329 328 327 330 327 324 332 337 337 337 338 340 339 339 339 341 343 344 344
313 314 314 314 314 315 315 315 315 315 315 315 315 315 315 315 315 316 316 317 319 321 322 322 320 318 317 316 310 308 320 319 327 329 323 320 324 330 328 330 332 330 331 328 324 324 325 327 330 330 326 322 325 322 325 326 329 330 330 330 328 328 330 332 333 332 333 330 332 331 328 329 329 327 326 328 336 338 338 339 340 341 339 341 343 343 346 345
313 313 314 314 314 314 315 315 315 315 315 314 314 314 315 315 315 315 316 318 320 322 323 322 320 320 321 315 310 313 324 319 327 329 328 327 325 333 329 328 331 329 329 325 324 325 326 327 329 326 319 326 320 326 324 330 330 329 327 323 325 327 326 329 329 331 331 329 331 331 326 323 325 322 329 333 335 338 337 340 340 341 341 342 343 343 345 345
314 314 314 314 314 314 314 315 315 315 314 314 314 314 315 314 314 315 317 319 321 321 322 322 321 321 318 310 313 321 323 326 326 328 330 332 333 334 330 328 331 330 330 327 325 326 327 327 327 323 326 325 322 320 327 330 328 329 327 323 322 321 320 325 328 329 328 328 330 328 312 316 321 326 328 332 335 335 334 338 338 341 341 340 342 343 345 346
313 313 314 314 314 314 315 315 314 314 313 313 314 313 313 313 314 316 318 320 320 319 322 322 322 321 319 313 318 320 323 323 322 324 327 331 330 330 329 329 332 331 332 329 329 328 327 327 326 325 328 325 321 329 324 324 327 321 324 324 317 315 314 323 324 325 323 327 326 326 314 316 321 325 328 331 335 332 332 337 335 337 339 340 341 342 344 345
313 314 314 314 314 314 314 314 313 313 313 313 313 312 312 312 315 318 321 323 320 321 321 322 323 320 314 315 324 325 342 320 317 318 322 327 329 328 327 331 332 332 332 331 329 330 329 327 325 321 320 328 327 321 319 319 321 322 317 313 316 313 315 321 325 324 320 324 326 323 315 316 320 325 329 332 334 334 332 335 336 338 338 339 340 342 343 345
313 313 314 314 314 314 313 313 312 312 313 312 311 311 313 314 317 320 322 324 321 321 323 321 322 320 317 313 319 332 320 315 314 319 322 331 332 329 332 331 332 331 330 329 331 332 329 327 321 322 322 326 321 316 316 316 314 317 315 313 312 314 315 317 322 325 325 324 325 322 315 319 318 326 330 332 334 332 332 333 334 337 337 338 339 339 340 344
313 313 313 313 314 314 313 312 312 312 311 311 310 311 313 316 318 322 322 322 322 325 325 322 322 320 309 318 325 316 313 315 319 318 320 329 332 329 328 328 327 327 330 331 333 332 328 324 325 324 325 320 318 316 312 311 310 312 315 311 314 313 314 312 321 323 324 323 320 323 319 319 321 326 329 331 332 332 330 330 333 335 338 341 341 340 340 341
312 313 313 314 314 313 313 311 312 312 310 310 310 311 313 316 317 322 323 323 328 326 325 327 326 315 312 319 311 314 321 319 317 317 321 328 331 327 328 326 327 328 329 326 329 325 327 320 323 316 318 317 316 313 308 305 309 309 311 310 311 314 315 315 314 320 322 322 319 319 319 320 322 324 326 330 332 331 331 329 332 334 336 340 341 340 342 344
313 313 313 313 313 313 312 312 311 310 310 310 312 317 317 315 321 326 324 326 321 319 313 317 312 305 307 314 319 317 317 321 319 318 319 324 326 327 329 330 327 325 319 316 317 322 324 320 320 315 310 311 313 314 310 311 313 312 313 312 312 311 313 314 319 322 322 319 318 318 316 318 321 323 325 328 330 330 330 330 329 334 336 337 340 340 340 341
313 313 313 313 312 313 312 311 311 309 308 311 315 318 319 312 311 319 318 319 317 318 320 316 316 315 317 318 317 320 323 321 314 315 320 324 320 319 324 325 322 321 315 309 312 315 321 311 309 309 311 313 315 318 316 314 314 314 314 314 313 312 314 318 318 321 323 319 317 318 318 319 321 323 324 325 328 329 329 328 327 331 335 338 338 339 339 341
313 313 313 313 312 312 312 311 310 309 308 312 315 311 303 303 299 300 304 306 309 309 308 309 310 313 315 319 321 317 313 315 319 316 317 324 320 316 317 320 317 312 312 313 311 315 317 308 308 313 314 315 316 318 318 315 313 312 312 312 311 313 311 316 318 321 323 317 316 319 318 318 320 321 323 325 325 326 327 327 328 328 332 335 338 339 339 342
313 313 313 312 312 311 311 310 309 309 308 316 313 307 308 307 309 311 308 300 307 310 310 311 312 310 313 315 321 321 318 313 313 317 319 318 316 311 314 315 313 310 312 312 313 309 308 307 310 314 317 318 318 318 317 315 312 312 310 311 310 311 314 317 318 321 322 319 315 318 317 318 321 322 324 324 323 325 328 329 328 329 331 336 337 339 340 340
313 312 312 312 311 310 310 309 309 306 314 313 308 306 305 311 314 315 312 305 303 310 310 308 307 308 309 314 316 321 313 311 310 315 317 316 312 311 313 311 311 312 312 311 308 307 305 309 314 316 317 315 315 316 315 313 312 310 310 309 307 312 310 308 315 318 320 318 316 318 316 317 320 323 324 325 324 326 327 329 329 329 330 335 338 340 341 341
313 313 312 312 311 310 310 308 307 312 312 312 311 306 310 312 314 313 308 301 300 306 309 311 312 310 309 308 315 316 314 314 314 313 321 316 310 312 311 312 310 311 309 310 310 308 308 313 317 315 315 315 312 312 311 310 308 310 311 310 309 310 311 312 313 316 318 319 319 317 315 316 319 318 319 324 325 325 325 327 330 330 329 334 340 342 342 339
312 313 313 312 310 310 308 307 308 308 312 313 310 310 311 313 315 315 306 304 306 305 315 312 313 313 313 318 317 311 314 316 316 319 320 317 312 310 309 315 312 309 310 311 310 309 310 314 316 313 313 313 312 309 310 310 307 308 310 311 310 311 311 313 314 314 312 311 316 315 307 309 316 318 318 321 322 322 324 325 328 329 329 332 335 336 336 339
312 312 313 311 311 310 307 309 307 310 311 306 307 310 312 313 315 316 308 299 295 303 313 305 314 309 319 311 314 312 314 309 317 319 321 319 318 312 312 311 313 308 311 311 309 310 310 315 314 312 311 311 311 309 311 311 307 306 307 311 311 311 311 311 311 312 308 306 313 317 306 305 315 315 317 319 320 320 323 324 326 329 330 331 335 337 338 337
312 312 312 311 311 308 306 302 310 312 306 304 310 311 312 312 320 313 304 299 297 308 305 310 309 310 316 313 313 314 300 305 317 319 319 321 314 319 310 310 313 314 315 314 310 306 312 313 313 313 311 309 309 307 310 311 307 305 312 312 311 310 309 309 310 310 309 314 315 315 313 306 307 313 319 320 319 319 321 322 326 326 331 330 336 337 340 339
312 312 311 310 309 308 308 310 311 308 308 309 310 311 312 315 316 314 303 289 290 311 305 306 310 316 314 314 314 308 310 316 308 313 319 321 318 314 312 310 310 310 313 312 302 311 312 310 312 311 310 308 307 310 312 312 309 308 311 311 310 309 309 309 309 308 309 308 305 310 313 308 308 314 320 320 316 318 319 322 325 327 330 331 333 337 339 342
312 311 311 310 308 307 313 312 311 309 311 311 310 311 312 314 311 304 297 291 307 307 316 306 314 312 311 313 310 310 311 315 309 314 318 320 319 315 308 311 313 312 313 313 307 312 314 314 313 314 311 308 311 312 313 313 309 312 313 312 311 311 310 309 307 307 307 305 301 307 311 305 306 312 314 319 317 317 319 322 325 329 330 332 330 336 339 341
311 311 310 309 309 313 312 312 310 311 311 311 312 312 312 310 307 297 291 286 306 299 307 307 307 305 310 306 307 309 308 311 314 316 316 314 315 317 315 317 312 311 310 313 312 313 315 319 318 314 312 314 314 314 314 313 313 314 312 310 309 309 309 310 308 307 305 299 302 307 309 307 302 310 312 313 314 318 321 323 325 329 330 331 333 334 337 340
310 309 309 308 309 310 309 307 309 310 312 313 312 311 308 305 297 293 286 296 304 305 308 306 305 308 306 305 303 308 308 310 310 314 310 314 312 313 313 310 314 310 309 309 308 311 313 315 313 315 318 317 316 313 315 315 314 312 309 307 307 307 308 307 306 308 299 297 304 308 307 308 300 306 313 318 321 320 320 322 325 327 329 330 332 332 336 340
308 307 308 310 312 313 306 305 309 311 312 312 310 306 302 292 298 288 291 305 294 304 304 303 307 307 306 307 306 307 305 309 310 310 308 308 308 306 307 305 307 301 302 304 303 310 308 310 314 315 319 316 313 311 311 312 312 310 308 307 302 300 301 297 301 297 297 297 304 307 307 304 303 309 314 316 318 321 323 322 323 325 325 328 331 334 336 337
307 307 306 312 316 314 312 311 313 313 312 311 307 304 296 290 285 294 293 297 294 303 302 307 304 304 305 305 304 308 310 305 310 308 311 310 308 308 310 309 310 307 300 306 305 304 305 311 312 313 314 317 315 306 307 306 308 307 305 304 300 298 296 293 297 300 300 303 306 306 309 302 307 311 315 314 318 320 321 324 325 325 326 327 330 336 333 334
306 307 312 316 312 311 312 314 311 311 309 309 304 299 295 287 287 300 296 300 300 305 305 303 303 304 304 301 304 307 304 308 308 307 309 308 307 305 307 309 311 308 308 307 303 303 299 300 306 310 307 316 313 311 310 309 308 308 310 307 304 303 299 295 297 295 297 301 304 307 304 302 302 306 315 317 318 320 321 322 326 327 327 328 329 334 333 333
306 310 317 316 313 312 310 310 312 311 309 306 299 293 286 287 293 292 294 297 300 302 300 303 301 301 301 304 306 308 308 304 309 307 306 306 304 306 306 306 309 311 309 303 307 306 303 304 309 314 313 315 312 314 314 312 309 310 310 311 306 303 309 301 303 302 302 301 302 304 302 308 308 316 318 319 318 318 319 321 323 325 325 327 327 330 331 332
308 315 315 312 309 309 309 310 311 311 307 302 295 290 287 291 289 296 295 299 301 297 298 301 301 299 299 301 306 305 310 305 307 307 305 306 308 306 310 310 308 310 308 303 308 303 305 303 312 312 314 313 313 315 313 314 302 308 308 303 306 312 309 306 308 308 307 304 301 309 306 308 313 313 315 316 317 317 318 319 320 322 324 327 325 330 330 328
311 314 309 309 308 309 310 310 310 309 306 300 293 288 293 294 297 296 299 297 297 299 298 293 297 298 298 298 302 304 306 307 306 306 302 307 305 309 309 311 313 311 312 309 307 312 304 304 311 310 307 313 316 315 314 314 315 311 303 307 312 314 312 307 300 305 302 298 302 306 304 305 305 302 315 314 314 314 316 317 318 321 323 323 324 326 332 332
310 311 309 308 308 311 310 311 310 308 303 298 290 292 297 292 298 298 300 298 298 298 295 294 296 300 297 300 301 303 306 302 304 304 302 306 302 311 310 309 313 312 312 314 308 309 311 304 308 311 310 312 316 315 311 314 315 311 308 315 306 301 300 306 304 297 298 297 300 304 306 306 307 307 312 312 312 313 316 318 317 317 319 320 321 323 331 334
312 307 302 306 310 310 310 311 308 305 300 294 292 289 295 296 299 298 300 299 299 296 292 295 293 297 298 297 301 301 304 300 304 303 300 304 301 307 307 308 309 311 313 314 310 311 312 303 306 312 310 311 313 311 303 306 312 314 316 311 313 309 305 302 304 305 304 299 299 300 303 302 310 311 313 314 315 315 315 316 317 318 319 320 322 323 326 331
305 302 299 308 310 311 312 310 304 302 298 291 290 291 295 292 296 298 299 298 295 294 294 294 297 294 297 298 299 299 303 302 302 303 303 305 304 306 306 308 306 310 311 313 310 312 309 312 303 308 312 311 304 308 305 307 304 306 307 308 308 308 311 309 308 304 302 301 301 302 299 304 310 314 313 316 317 317 316 316 318 319 321 322 324 324 327 331
307 301 301 309 310 311 310 305 299 295 293 295 295 293 293 292 295 297 298 300 298 300 296 295 294 294 296 295 294 298 300 301 302 301 304 304 302 300 304 305 306 307 311 310 310 311 309 309 303 307 306 305 306 311 311 310 309 308 306 306 308 305 303 300 300 308 305 302 298 301 301 309 313 317 317 317 319 318 318 318 318 319 319 324 325 327 330 333
301 295 298 309 311 309 304 297 297 298 295 293 291 294 293 298 295 295 297 298 298 296 300 297 297 296 295 295 297 297 298 298 301 301 303 303 302 302 303 307 308 309 308 307 308 312 313 312 307 305 305 306 309 313 314 314 313 311 309 307 311 309 308 304 296 302 306 305 306 306 303 307 316 318 318 317 318 318 319 319 319 319 320 321 323 324 329 333
299 297 307 309 310 307 301 296 296 297 295 296 299 297 298 297 296 298 296 297 296 299 297 297 296 296 297 297 298 296 297 295 299 299 302 303 302 302 304 306 308 310 311 310 311 312 316 307 305 306 311 311 313 314 314 314 313 310 310 311 310 307 308 307 306 309 305 305 302 303 302 307 314 320 318 317 319 318 321 319 320 320 320 322 323 325 329 332
300 299 302 308 310 307 299 289 291 293 294 297 297 296 298 297 297 295 295 296 296 296 294 294 297 298 295 298 297 295 298 292 300 300 300 304 302 304 305 306 307 307 307 308 307 313 306 308 307 303 304 305 307 310 310 312 311 308 308 309 310 311 311 310 311 312 306 306 305 302 298 304 314 319 319 318 317 316 317 318 319 319 321 322 323 324 327 337
300 302 302 303 308 305 297 296 294 293 293 295 294 293 294 295 297 297 296 295 298 297 295 294 297 297 296 299 296 298 299 297 295 302 301 300 302 305 305 305 306 306 307 309 311 310 306 307 305 300 298 296 296 297 299 302 305 308 310 310 310 309 310 308 304 307 300 310 310 304 304 311 316 319 318 317 317 318 318 318 319 322 322 321 322 324 332 335
296 291 297 300 302 303 302 302 299 295 294 295 292 294 295 292 294 296 298 294 297 297 297 297 296 296 296 296 295 295 296 300 296 295 297 299 302 304 304 305 305 305 308 311 311 311 307 309 308 306 305 302 306 309 311 311 308 304 307 309 309 310 311 311 309 306 302 308 307 310 311 311 313 314 315 315 316 315 315 319 319 320 321 325 332 332 332 337
299 293 292 291 297 300 296 298 297 297 294 296 290 293 291 292 293 293 298 292 296 295 296 296 293 291 292 293 293 294 296 297 299 297 296 296 298 302 305 304 305 306 308 309 309 309 308 304 307 308 308 310 309 310 309 310 307 307 307 307 309 309 309 309 306 304 313 307 300 311 315 311 311 314 315 316 316 319 318 321 320 321 322 324 326 332 339 331
292 296 297 299 291 289 292 293 297 296 297 297 293 295 290 289 292 290 295 296 297 298 292 295 295 294 293 291 293 291 295 294 296 293 297 297 297 301 302 304 304 306 307 306 309 308 306 303 307 308 307 309 312 307 309 309 310 309 309 308 308 309 309 307 308 309 311 306 304 312 315 313 314 314 315 317 319 319 317 318 320 323 323 326 328 324 325 328
299 298 297 301 292 295 295 296 296 296 294 295 293 294 291 290 289 292 292 293 295 293 294 287 292 294 294 294 292 290 292 289 290 293 294 293 295 297 298 302 304 305 305 305 307 309 306 304 307 308 307 309 309 308 310 307 309 308 309 309 310 309 309 308 309 310 310 311 312 314 315 312 315 315 316 317 319 319 320 321 322 322 320 325 323 323 322 324
295 294 294 299 298 296 296 296 296 295 293 294 289 291 292 291 290 293 294 293 288 290 294 291 292 293 294 294 294 289 291 292 291 288 293 294 293 297 295 297 296 303 305 302 304 308 304 303 306 307 305 306 309 309 308 308 307 307 309 309 309 309 310 310 309 310 311 310 311 311 314 313 316 320 320 321 323 321 321 318 318 321 321 320 321 320 322 323
301 302 302 295 291 294 296 296 295 294 291 293 291 293 293 293 292 294 293 296 293 290 293 292 294 293 294 294 294 293 294 294 294 293 295 294 290 296 293 295 299 297 302 302 304 304 305 303 305 305 301 302 306 305 306 307 306 306 307 308 308 308 307 309 308 310 309 309 310 310 310 311 317 320 320 320 320 321 320 320 320 321 320 321 321 321 322 325
303 305 304 298 291 296 293 295 296 293 290 293 292 294 293 294 295 295 291 295 296 297 295 293 295 293 293 293 293 295 296 296 296 297 297 298 299 299 300 299 300 300 300 300 304 301 303 301 301 301 298 300 304 306 305 305 305 302 303 307 309 309 310 311 312 313 312 312 309 307 309 316 319 321 318 318 317 319 319 319 321 321 324 321 322 322 323 323
Wind_Speed
21 20 21 21 21 21 21 20 20 20 22 23 23 23 23 23 23 22 21 21 21 20 18 18 17 17 16 15 15 14 13 13 13 11 15 23 12 9 11 8 15 16 16 14 13 15 16 16 17 15 12 10 10 10 8 10 8 6 8 5 6 4 1 7 3 3 1 7 8 4 4 6 7 4 7 6 7 9 7 9 8 7 7 14 19 22 22 22
21 21 21 21 21 21 20 20 21 21 22 23 23 24 24 24 25 25 24 21 21 20 19 18 18 17 17 15 15 14 14 13 16 16 22 19 11 10 13 13 18 17 17 16 16 17 17 17 17 16 13 11 9 10 10 8 8 9 7 7 7 2 6 17 2 7 4 6 1 7 4 3 8 3 5 6 8 9 9 9 10 10 14 17 20 23 23 22
22 22 22 22 22 23 23 22 23 23 23 23 24 24 24 25 25 25 23 21 19 19 19 18 17 17 16 15 13 12 13 15 16 21 24 23 15 17 17 16 20 18 20 17 17 18 17 16 16 15 13 10 10 11 12 8 8 10 10 8 3 10 14 1 2 5 8 3 4 5 8 3 9 4 3 3 8 7 7 9 10 12 14 18 21 23 23 22
23 24 24 22 23 23 22 22 22 23 23 23 24 24 24 24 25 24 24 24 21 20 18 18 17 16 15 15 12 13 11 15 15 18 7 5 24 19 18 18 22 21 21 18 16 16 15 15 16 16 12 12 10 12 11 9 9 7 8 10 1 10 6 7 1 4 7 6 5 4 9 4 9 5 4 7 6 6 7 8 10 13 17 19 21 22 22 21
24 24 24 23 23 23 23 23 23 23 24 24 24 24 24 26 25 25 24 23 22 19 18 18 17 16 15 12 12 11 11 9 3 11 9 4 16 19 17 20 22 23 21 16 15 16 15 16 16 16 13 11 12 11 11 11 11 7 10 11 12 9 2 8 4 3 5 5 2 3 5 6 9 6 4 4 3 3 7 11 11 15 17 20 22 23 22 22
24 24 23 23 24 24 24 24 24 24 24 24 25 24 24 24 23 23 22 22 22 20 19 17 16 15 14 11 11 10 7 6 8 8 9 8 16 16 17 20 22 22 19 17 16 16 17 16 17 14 13 12 14 12 12 13 12 9 10 11 10 7 4 6 6 2 4 5 3 2 4 3 6 6 5 4 4 5 5 12 12 16 18 20 21 21 22 22
24 25 24 24 24 24 24 25 25 25 24 25 25 25 24 24 24 23 21 21 20 21 19 17 14 13 12 10 11 9 12 17 4 12 13 12 13 15 16 18 19 20 19 18 17 16 17 17 18 16 14 15 15 14 13 13 14 12 10 7 10 7 5 5 11 6 6 4 4 4 2 4 5 8 9 8 3 10 5 9 12 17 18 20 21 22 22 22
24 24 24 24 24 24 25 25 25 26 25 25 26 26 25 25 24 23 22 21 21 20 18 14 12 10 7 9 8 9 14 15 19 14 14 15 14 14 15 18 20 19 19 19 18 18 17 19 19 16 15 14 11 14 13 14 15 14 13 11 5 5 7 11 9 7 8 7 5 5 5 6 5 4 8 8 8 9 6 7 14 15 16 18 20 21 21 21
23 23 23 23 24 24 25 26 26 26 26 26 26 26 25 25 24 24 23 21 20 18 15 13 10 10 9 7 9 11 15 15 15 17 16 17 14 16 18 14 19 18 18 18 18 17 17 17 19 17 13 16 14 14 13 12 12 14 14 10 10 8 8 9 10 9 10 7 5 7 8 4 7 4 7 5 10 9 10 9 17 17 17 17 19 20 21 20
23 24 24 24 24 25 26 27 27 27 27 27 27 26 25 24 23 23 23 21 19 17 13 9 9 10 9 8 9 12 7 4 2 10 16 13 15 17 20 15 20 19 18 19 18 19 19 14 18 17 17 14 14 14 12 15 8 9 14 14 12 10 10 10 12 12 11 10 9 10 8 6 7 6 7 8 11 11 11 12 15 16 16 17 17 18 20 21
24 25 25 25 26 26 27 27 28 27 27 28 28 26 24 24 23 23 22 20 17 16 13 11 10 12 11 11 12 12 4 6 4 5 9 11 14 17 17 16 20 19 20 18 19 20 18 17 16 11 13 11 11 15 12 12 14 6 7 11 14 14 12 11 12 14 11 11 11 11 10 7 7 8 4 12 11 13 12 13 15 15 15 15 18 18 18 18
25 25 25 26 27 27 27 28 28 27 28 28 28 26 24 23 23 22 20 17 17 12 9 10 15 9 10 11 14 13 6 6 1 5 7 9 13 17 17 17 19 19 20 18 19 18 18 18 15 16 11 11 13 10 14 13 13 14 11 11 12 13 14 15 15 14 14 11 9 10 11 12 11 11 6 7 13 13 12 13 13 14 13 14 16 17 17 17
25 25 26 26 27 28 28 28 28 29 29 28 27 24 24 22 22 21 17 15 8 7 5 11 13 9 9 12 17 19 17 6 3 5 7 8 10 13 14 16 18 19 19 17 17 17 18 17 17 17 17 10 12 9 4 14 16 13 14 12 11 13 14 16 15 16 16 12 11 9 9 9 12 11 10 10 11 12 12 14 12 10 11 11 14 14 17 17
25 25 26 27 27 28 27 28 29 29 29 28 26 23 21 21 21 17 15 11 9 6 6 13 11 8 10 11 5 6 15 15 14 7 8 8 12 14 15 15 15 16 16 17 15 14 17 15 17 17 14 16 10 9 7 7 11 14 13 11 12 12 12 15 15 16 16 12 13 10 10 7 11 14 13 12 11 11 12 14 15 13 15 13 13 14 16 19
24 25 26 27 28 28 27 27 28 29 29 28 26 23 21 21 17 15 12 15 5 3 8 11 9 8 9 11 15 20 8 6 14 15 11 11 13 13 16 15 16 16 15 16 12 12 13 16 16 15 14 15 15 13 12 11 11 12 12 14 13 14 10 15 18 18 17 13 16 13 10 8 6 13 12 11 12 11 11 13 13 15 13 14 13 12 15 17
23 24 26 26 28 29 28 28 28 29 28 26 26 23 20 15 13 13 11 6 6 9 9 9 9 11 11 13 2 10 10 16 15 14 13 11 13 13 14 14 13 14 14 14 11 9 11 14 15 13 13 14 17 13 9 9 13 13 14 13 15 14 12 11 15 16 19 14 16 16 10 9 6 7 10 14 12 11 10 11 14 15 16 14 13 11 12 15
24 24 24 26 27 28 30 29 29 29 28 28 27 24 17 10 8 3 3 6 7 8 7 4 7 8 7 3 4 8 11 14 11 13 14 14 13 13 14 15 14 16 14 10 9 9 14 14 10 12 14 13 14 13 11 13 14 13 13 14 14 15 14 12 11 15 16 17 14 18 14 11 9 17 17 15 12 13 10 10 12 12 14 15 14 13 11 12
25 24 25 26 27 29 28 30 28 30 29 29 28 24 16 9 7 7 7 8 5 7 7 8 8 6 16 17 9 9 13 11 13 12 15 13 15 13 14 13 13 13 13 13 13 13 12 13 12 13 13 16 16 16 17 18 16 14 14 14 15 16 16 14 12 13 15 18 17 16 15 13 12 12 14 13 13 11 10 8 10 12 13 17 15 13 12 12
27 26 25 25 26 28 28 28 30 29 28 25 28 24 4 5 6 8 7 6 6 6 7 9 9 10 8 3 16 3 6 10 12 14 16 16 13 9 13 12 13 16 15 14 13 17 12 11 12 14 18 19 19 19 19 16 16 18 17 14 14 14 14 13 14 11 14 17 18 17 13 14 15 13 9 13 13 12 11 11 8 11 12 15 14 13 13 16
27 26 25 25 26 27 29 26 29 29 26 20 17 10 6 2 4 6 4 7 12 13 18 7 14 17 16 6 8 4 7 5 14 15 16 16 13 13 16 15 15 15 16 14 16 19 13 16 18 20 18 19 21 21 20 20 18 16 16 15 16 17 15 12 11 12 12 12 16 18 17 14 16 16 15 13 12 12 12 12 10 10 12 13 14 15 16 15
27 26 26 24 26 27 27 26 29 28 29 16 17 11 8 11 11 7 17 18 17 21 23 23 20 18 16 12 4 8 8 11 12 15 18 16 15 13 15 16 17 16 17 17 15 14 15 17 20 21 21 19 20 20 19 19 21 19 16 17 15 17 15 14 17 17 9 9 11 16 18 20 15 13 15 14 14 14 14 13 12 11 13 16 18 18 16 12
27 27 26 27 24 27 27 29 29 28 27 15 8 10 8 9 6 9 11 15 16 15 19 21 20 20 20 22 14 5 8 9 16 16 16 20 19 17 16 18 19 17 17 17 14 15 17 20 21 21 20 19 18 20 20 20 20 20 16 12 14 14 14 15 17 18 17 13 11 14 15 14 17 17 16 16 14 14 15 13 13 12 12 13 15 16 15 13
28 27 26 27 26 27 29 29 30 24 12 9 8 11 10 10 8 6 10 14 21 18 18 22 22 24 21 17 17 12 13 15 15 18 19 20 20 21 18 18 19 17 18 20 17 17 16 19 22 20 18 21 20 19 21 21 19 16 16 14 14 12 13 13 16 12 15 11 10 14 16 14 17 17 16 15 15 14 15 15 14 12 12 12 16 15 15 16
28 27 26 27 27 27 28 28 27 17 5 9 8 12 12 9 9 11 12 10 14 20 18 22 21 19 22 19 14 20 17 14 15 20 20 21 20 21 17 22 21 19 19 24 24 19 19 10 18 20 20 20 21 21 19 17 16 18 19 16 15 15 15 15 11 18 15 15 14 13 13 13 14 16 16 16 17 17 14 16 14 13 12 12 15 15 15 18
28 27 27 27 27 28 30 30 11 12 14 10 5 13 12 11 9 10 11 10 12 14 15 16 14 17 16 14 12 17 18 14 17 13 19 23 22 19 19 16 16 19 20 24 24 21 19 15 13 21 21 20 20 19 20 16 15 16 22 20 17 18 18 14 17 14 12 12 13 14 12 15 15 19 18 14 15 18 16 16 16 15 13 13 15 19 21 20
27 28 27 26 25 27 33 14 8 13 15 6 12 13 12 11 9 7 8 7 12 7 11 11 13 12 12 16 14 15 14 19 18 15 17 20 20 19 14 15 14 19 24 22 20 14 15 17 14 19 22 21 21 19 19 20 15 15 16 22 21 19 18 17 17 16 13 12 11 15 16 13 13 18 17 17 17 19 17 17 16 14 12 13 13 15 18 19
25 26 26 27 25 22 14 7 12 14 9 10 13 13 11 10 8 10 7 7 12 9 12 9 12 8 8 15 16 15 14 16 15 19 19 21 23 19 20 17 16 13 15 13 11 16 16 20 18 15 20 20 18 18 19 19 15 14 12 17 22 23 22 18 17 16 12 10 12 15 14 14 13 14 16 19 21 22 18 14 14 14 14 14 14 15 16 18
25 25 26 25 26 20 9 11 12 10 9 12 14 13 12 9 9 8 6 6 6 11 8 6 2 5 7 15 19 19 6 7 19 23 21 21 22 20 21 21 19 20 18 17 20 13 20 20 21 20 18 17 18 18 18 19 16 12 13 14 15 18 21 21 17 14 12 12 13 14 19 15 13 11 13 16 19 20 16 14 16 16 15 14 15 16 16 17
24 24 24 26 26 31 16 9 9 10 10 12 14 13 10 11 8 6 7 8 4 4 4 7 1 8 4 14 18 20 15 9 13 19 22 20 25 15 18 23 19 19 22 21 17 14 15 19 20 20 16 16 17 19 17 19 17 16 13 14 15 13 14 19 17 15 15 14 17 15 16 14 14 11 12 15 17 17 16 17 17 16 14 14 13 15 17 17
23 23 23 23 22 12 3 8 9 7 11 13 14 14 16 12 8 7 8 11 4 3 2 6 8 10 11 14 15 19 21 12 8 12 24 20 23 23 15 16 19 18 19 22 21 17 13 16 19 16 17 16 16 15 16 18 19 12 16 12 7 6 8 9 11 14 13 18 18 18 19 17 14 13 15 16 16 15 12 14 14 15 16 16 16 18 16 16
25 24 22 21 11 9 10 8 7 14 12 12 14 17 12 7 8 9 12 5 9 5 4 10 6 6 13 14 11 17 20 14 12 12 21 20 20 23 15 15 18 15 15 18 20 21 20 15 16 14 16 13 14 16 17 17 17 16 12 12 9 10 9 9 11 12 14 18 15 19 19 20 18 13 13 14 15 20 19 15 18 18 17 18 18 18 17 16
27 26 27 17 12 10 8 9 13 12 11 13 16 11 8 10 10 13 9 8 13 9 10 6 5 4 10 13 13 16 16 16 12 16 19 19 19 20 22 18 17 17 18 19 18 20 21 19 14 17 16 20 17 15 14 16 16 16 13 13 13 10 10 12 11 16 18 15 10 16 18 16 24 14 10 14 17 16 17 19 18 21 22 22 21 21 15 15
28 28 26 16 14 8 8 10 11 11 13 14 11 8 8 9 13 11 14 14 3 10 9 12 12 13 13 11 13 13 19 18 16 16 20 21 19 21 25 22 21 19 16 17 15 18 17 19 20 17 16 18 18 16 13 15 16 17 16 15 14 13 13 12 13 11 11 14 15 12 18 19 16 13 20 19 14 16 17 16 18 22 24 22 20 17 16 16
29 28 14 9 8 7 7 10 10 13 13 11 10 9 10 11 12 13 16 9 12 12 13 13 17 15 13 11 11 13 13 17 18 16 20 17 21 19 21 27 24 23 16 13 17 17 14 18 22 20 15 19 21 18 15 12 16 16 15 14 13 11 10 12 11 15 14 8 14 19 12 14 16 10 12 18 21 17 13 17 18 18 19 18 18 16 15 16
32 27 16 8 7 4 9 11 11 12 11 10 9 9 12 11 10 10 12 9 12 14 15 20 16 15 13 13 16 17 15 12 20 18 18 18 19 19 21 21 29 21 18 15 15 12 24 16 16 24 13 20 22 21 18 16 14 15 15 12 14 17 9 10 8 11 10 11 11 15 15 9 11 7 5 8 15 20 17 14 15 17 15 14 18 20 18 16
24 9 10 2 6 7 11 9 10 11 9 9 9 9 12 10 9 9 3 15 12 15 20 19 13 13 12 11 13 15 10 10 17 18 16 20 18 20 20 17 22 27 18 19 10 14 16 17 15 23 24 20 23 21 20 16 14 15 16 18 17 13 13 9 9 11 10 10 12 9 11 13 4 8 13 10 11 14 20 20 17 15 17 16 15 19 18 18
12 13 6 4 5 11 11 10 9 9 9 9 10 11 10 10 11 13 9 15 15 17 15 11 6 9 8 11 11 15 10 14 11 16 13 18 16 20 20 20 22 27 27 17 13 11 12 13 17 19 29 20 20 22 22 20 13 11 17 16 13 13 13 10 10 8 9 10 8 11 13 12 11 9 10 13 14 15 17 20 21 18 17 18 16 17 19 18
14 11 12 6 8 12 12 10 10 8 9 9 11 14 11 14 9 14 12 13 13 12 13 11 11 14 13 11 7 6 17 14 11 13 13 16 8 4 18 18 23 21 29 23 15 13 12 11 16 21 23 20 19 20 21 22 21 14 13 13 15 14 16 13 8 13 11 12 9 10 12 11 12 10 8 16 16 14 16 17 19 20 20 20 19 19 20 21
13 12 5 11 11 13 11 11 10 9 8 9 8 11 7 10 11 11 13 13 12 15 12 13 13 11 14 13 11 14 3 8 7 10 12 12 13 6 6 9 7 5 4 22 20 10 12 12 9 19 22 20 18 18 20 19 22 21 13 16 15 11 13 13 12 7 8 9 9 11 13 11 11 10 11 8 14 14 13 14 15 17 18 17 17 18 19 19
9 8 4 12 13 12 11 11 8 8 4 8 9 8 11 13 12 15 13 13 11 9 10 15 15 14 15 15 16 12 6 14 11 11 15 2 5 12 9 5 7 2 4 5 11 18 11 13 12 16 22 19 17 17 19 20 21 20 17 14 15 12 9 11 11 13 10 9 8 7 10 11 11 12 12 9 10 15 15 13 12 12 14 16 15 15 15 17
9 9 4 15 14 13 13 9 3 6 6 5 7 9 11 11 13 13 16 15 13 10 12 15 14 13 14 14 14 16 10 11 11 10 12 10 8 5 10 11 6 8 4 7 10 15 10 11 15 13 16 19 18 19 21 22 21 19 17 16 15 16 15 16 14 11 13 9 6 6 7 1 9 5 2 7 9 9 12 14 14 13 13 14 14 15 17 16
10 8 9 13 12 15 12 7 4 3 5 6 8 9 9 10 11 10 11 11 13 11 11 14 17 15 15 14 12 13 12 13 11 11 13 3 12 9 8 10 10 7 7 9 14 16 10 4 14 13 15 17 18 20 21 21 22 21 19 17 16 15 14 12 10 11 11 12 9 8 6 1 7 6 5 6 8 10 10 9 11 13 14 14 14 16 16 17
8 9 10 8 11 13 11 5 5 5 6 7 9 6 7 7 9 8 11 10 10 6 9 10 13 15 14 15 15 14 14 12 14 13 8 7 6 7 10 12 11 9 5 7 15 17 3 8 9 13 14 14 18 18 20 21 21 21 20 19 17 17 18 13 10 8 10 11 12 9 8 4 10 9 9 9 3 4 9 9 9 9 9 10 11 12 14 14
10 9 7 7 11 10 7 7 8 7 7 9 10 11 5 8 9 10 10 10 7 9 11 9 12 11 16 18 17 14 10 11 12 17 10 5 1 7 7 10 14 5 4 4 4 7 13 12 12 10 11 11 15 16 17 19 19 16 17 20 20 18 18 16 11 8 10 12 13 10 10 8 10 8 5 3 7 8 10 11 12 11 10 9 11 10 9 10
9 7 4 7 9 7 5 7 7 8 9 11 12 12 10 8 6 9 11 10 7 7 10 8 10 13 13 15 17 16 15 15 13 9 7 12 3 8 4 8 9 8 8 9 11 9 7 12 14 14 16 16 16 17 18 20 21 15 18 22 24 24 22 16 15 11 8 8 13 10 8 5 12 7 8 11 7 6 6 12 12 6 9 9 12 10 9 8
10 10 8 8 9 7 3 7 5 8 9 9 11 9 10 10 7 10 8 10 4 9 8 8 7 10 11 15 13 12 15 15 14 8 9 7 8 3 4 7 7 9 11 16 14 8 7 8 15 16 13 13 4 4 10 17 14 19 21 23 24 24 22 18 12 12 13 8 8 8 6 11 9 11 8 9 6 9 4 2 7 11 9 7 11 8 7 6
8 7 10 10 9 4 9 8 8 8 8 10 8 8 12 11 8 7 8 9 9 10 9 2 6 9 9 13 13 14 15 17 17 14 11 11 10 12 3 8 6 6 15 12 3 5 5 10 14 21 24 6 7 5 10 9 19 21 20 23 23 25 24 22 17 15 10 9 10 9 12 5 9 11 8 8 9 5 5 3 8 7 7 10 8 5 5 8
7 7 9 6 8 9 10 7 9 9 11 10 8 8 8 11 9 9 8 7 11 10 10 1 4 7 10 9 12 10 12 17 14 11 14 12 12 11 9 8 5 6 9 6 4 5 6 12 14 14 25 19 9 7 7 6 14 14 23 22 25 24 26 25 21 18 14 12 8 11 11 11 6 10 10 9 8 7 8 9 8 10 9 7 5 3 6 13
7 8 8 9 10 9 11 13 12 11 12 9 7 9 8 8 10 9 8 10 10 4 5 8 8 10 11 9 7 9 11 10 7 13 10 12 13 12 8 5 6 3 7 5 3 3 5 8 12 19 15 17 10 11 8 9 9 8 12 22 22 23 25 25 22 20 18 12 11 7 15 17 11 9 12 12 8 3 0 3 4 3 6 8 5 7 4 12
7 8 8 9 10 12 11 9 9 9 9 5 5 3 6 9 10 10 8 9 10 2 3 7 10 11 11 10 8 8 10 11 10 10 12 13 15 9 12 12 13 10 8 6 5 2 5 6 9 6 10 17 15 11 9 10 5 7 11 14 21 23 21 22 22 21 19 16 14 11 7 9 11 11 8 2 2 3 4 5 6 5 5 2 1 3 3 5
8 7 7 9 12 8 9 9 8 8 8 6 4 6 9 10 11 10 10 8 10 6 8 9 10 11 9 11 10 10 9 10 11 11 12 13 11 13 9 9 13 11 6 6 3 6 6 4 4 7 10 11 13 13 11 10 9 13 13 9 9 17 23 21 19 18 18 17 16 15 13 10 6 7 6 3 2 4 5 3 4 3 4 4 6 6 6 5
8 8 7 6 10 11 10 10 9 7 8 4 4 8 8 11 11 9 10 4 6 7 4 7 10 9 10 10 12 10 8 9 12 12 12 13 14 13 12 12 11 9 6 7 7 7 4 5 5 9 9 10 14 14 12 9 9 12 16 14 14 12 8 9 10 11 12 10 12 12 8 3 2 4 7 5 5 7 9 7 6 7 6 7 7 7 7 7
Wind_Direction
358 356 355 352 349 348 346 342 337 335 331 329 327 325 325 324 320 320 322 322 320 318 316 314 312 311 309 308 307 307 309 288 294 261 232 244 247 185 161 134 154 173 190 194 197 187 193 199 200 199 201 209 215 232 229 211 248 248 248 257 254 1 322 292 9 41 84 69 112 154 140 117 116 136 95 167 141 112 136 116 116 91 74 99 124 134 142 146
357 356 353 351 348 345 342 339 335 332 329 326 325 322 323 322 322 322 320 320 318 316 313 312 309 307 308 307 306 305 302 287 273 262 244 249 174 176 164 159 161 177 188 200 198 191 193 195 196 190 202 209 203 233 210 212 214 247 239 262 272 150 175 245 93 55 353 95 356 133 166 183 99 146 125 191 133 136 145 122 138 112 98 113 130 134 145 152
357 354 352 350 347 343 341 339 335 332 328 324 323 322 325 322 321 319 317 316 316 313 309 308 306 303 303 304 301 299 290 289 270 258 255 234 197 174 172 163 173 171 189 200 197 194 199 192 191 188 205 216 195 225 203 217 196 220 260 238 225 208 218 162 72 62 35 334 73 122 140 205 113 173 118 201 139 136 157 139 145 129 128 136 137 145 147 158
356 354 351 348 346 342 339 336 333 330 326 324 321 321 321 319 320 317 315 315 313 311 308 303 301 301 298 299 301 299 285 279 274 259 281 195 189 173 167 168 176 180 197 211 193 199 200 194 192 193 200 224 194 228 195 213 216 204 228 254 258 280 250 137 64 59 31 344 61 109 100 208 134 137 202 117 157 154 156 156 155 144 143 145 149 148 154 156
354 352 349 347 344 341 338 335 333 329 326 321 320 322 319 320 320 316 314 312 310 306 302 302 297 296 295 291 292 283 281 285 270 70 38 109 158 160 163 171 179 186 201 207 193 204 201 195 192 197 214 213 217 206 220 214 219 261 237 261 205 253 30 315 43 46 2 344 49 104 186 165 118 160 186 176 199 137 160 148 158 147 151 151 157 153 157 164
353 351 348 345 343 340 336 334 331 328 324 321 321 320 318 319 315 313 309 306 303 303 301 298 293 287 290 289 283 265 260 237 67 76 86 96 136 154 168 175 185 195 200 205 197 197 199 197 194 201 211 225 215 210 204 225 194 240 242 246 266 246 6 331 288 40 307 328 348 202 69 91 158 168 176 205 185 111 37 136 150 145 150 156 155 157 163 166
352 349 347 344 341 338 334 330 328 326 323 321 320 318 318 316 317 312 306 302 301 302 300 293 287 281 272 286 266 256 234 263 312 133 122 132 152 165 172 177 188 205 202 203 197 197 199 200 197 200 213 219 225 220 216 214 211 235 260 212 231 260 192 219 277 280 262 272 297 342 120 236 138 215 150 191 230 107 99 124 132 140 149 157 160 163 168 168
350 348 345 341 338 334 331 328 327 325 323 323 318 318 318 317 313 308 305 302 303 299 296 288 279 267 276 250 242 222 229 244 258 152 144 139 163 172 170 182 190 204 208 206 194 201 195 203 198 205 219 217 213 220 214 222 216 229 238 256 269 207 228 210 231 246 249 266 256 238 249 216 181 282 134 193 178 129 128 142 116 137 150 164 163 169 167 171
348 345 342 337 335 332 328 326 325 324 325 318 318 317 317 315 311 307 305 305 300 297 288 283 261 248 239 269 249 259 245 237 247 139 151 153 166 163 173 178 193 203 211 208 202 205 200 205 206 210 214 221 227 226 217 231 219 223 239 243 247 231 217 225 230 236 246 251 247 240 230 223 214 169 232 189 169 155 151 163 146 154 159 169 172 171 171 172
346 342 339 336 332 330 328 326 325 325 322 320 318 318 316 312 309 308 307 304 300 288 285 272 239 221 210 217 229 247 264 300 191 199 161 174 164 166 180 185 184 204 210 209 204 208 206 203 212 207 239 238 237 234 216 221 247 222 230 243 250 237 231 220 232 234 239 241 234 235 230 219 200 202 187 199 157 174 163 168 152 157 167 171 175 177 173 177
345 342 338 335 332 330 329 327 326 324 322 320 315 315 315 313 310 307 307 303 297 289 278 239 213 201 211 222 238 236 100 245 174 183 225 225 188 183 193 199 187 198 211 209 213 208 208 219 205 220 227 244 229 240 228 222 227 229 261 251 234 244 244 244 231 236 237 231 231 242 248 226 228 187 238 162 170 169 169 162 159 163 174 171 175 178 174 178
343 340 337 333 332 330 329 327 327 324 322 318 316 315 313 312 310 309 304 303 295 294 260 214 192 208 232 231 233 229 93 244 165 248 185 201 195 197 203 201 193 202 203 210 212 208 213 215 213 216 222 212 252 247 229 237 225 242 229 239 239 234 236 225 235 230 227 238 221 231 245 232 209 217 204 161 164 167 177 164 163 170 168 178 180 175 177 180
341 338 335 333 330 329 329 328 327 324 321 317 313 313 312 311 310 304 300 297 312 306 223 192 190 219 226 236 242 239 254 249 246 289 255 198 200 203 205 207 199 206 207 215 208 212 212 216 218 220 231 220 225 223 14 219 223 232 236 247 251 248 240 229 223 227 223 227 216 210 235 218 206 199 168 193 164 165 178 170 161 181 163 190 185 179 176 178
340 336 334 332 330 328 328 328 327 323 318 315 313 313 310 309 307 300 293 291 309 272 188 179 200 210 231 246 259 181 233 246 252 235 236 217 209 196 203 201 202 209 213 224 219 210 215 215 220 231 228 234 229 222 213 244 216 224 225 231 241 239 234 219 219 212 227 205 211 219 237 228 192 183 170 196 167 170 184 170 160 191 176 181 188 191 184 178
337 335 334 332 330 328 329 329 325 320 317 315 311 312 308 308 300 293 287 285 255 192 166 175 214 218 223 262 244 246 116 256 235 222 225 217 206 191 198 193 200 205 212 221 225 216 215 212 222 220 225 221 258 252 218 228 215 216 225 225 227 238 231 223 205 207 220 198 205 211 234 234 196 157 189 192 175 182 197 175 177 177 176 171 188 197 196 184
335 333 333 332 330 329 330 330 325 320 318 313 312 309 303 293 285 276 279 337 147 164 171 185 202 234 297 278 259 98 180 219 219 216 214 225 204 196 188 193 196 202 205 210 224 208 213 212 217 220 225 214 226 234 240 219 222 212 228 231 224 221 236 230 197 209 208 215 190 212 226 209 183 119 209 182 172 191 197 193 181 182 175 173 175 187 206 197
334 333 333 332 332 330 330 330 325 320 319 315 313 307 301 289 254 301 246 183 172 189 209 232 176 207 246 70 110 213 204 207 217 196 204 212 201 198 182 186 188 192 197 195 220 221 197 216 202 226 226 228 208 222 227 220 215 213 211 233 233 226 214 229 184 200 199 219 204 205 230 219 192 169 207 177 185 187 204 194 189 192 163 165 175 176 199 213
333 333 333 332 332 332 329 329 325 321 320 317 311 299 288 271 260 269 208 217 211 213 228 257 269 228 242 247 243 231 206 192 197 194 190 189 204 186 185 179 180 181 178 180 204 211 189 206 199 219 207 219 209 209 217 214 211 209 206 214 227 239 230 217 208 180 207 199 226 197 214 225 224 190 188 177 185 205 205 210 200 185 181 155 177 186 190 209
333 333 332 331 332 331 329 328 324 323 320 315 300 283 257 182 242 233 245 195 212 192 212 186 197 192 29 194 211 3 200 182 176 188 184 188 194 177 183 184 179 173 186 191 180 206 176 212 202 218 214 205 213 209 216 225 219 220 214 216 226 226 222 231 207 196 206 201 212 226 214 209 219 230 204 183 193 214 207 209 214 184 185 167 178 184 191 208
333 331 332 331 334 330 328 327 324 321 322 323 317 303 173 283 233 184 198 258 246 253 290 310 209 254 296 269 187 160 58 141 178 192 185 188 179 189 184 190 182 189 192 197 171 205 174 206 205 211 212 209 213 216 218 226 244 231 229 227 221 227 233 209 227 215 203 231 211 213 231 231 217 219 223 220 193 207 218 212 209 193 180 165 185 190 201 200
332 330 331 331 333 330 326 327 323 320 318 315 306 1 26 359 343 329 337 297 271 258 260 267 256 250 252 263 239 183 187 191 216 186 198 177 191 187 187 188 186 196 201 199 187 189 201 213 217 212 214 215 210 217 220 228 232 240 234 227 228 224 232 215 203 210 199 214 222 221 218 226 227 223 225 215 196 207 212 213 209 208 186 181 189 190 194 196
331 330 329 332 333 331 326 326 320 317 314 295 346 15 25 22 343 313 312 299 293 273 265 257 256 252 250 256 260 244 251 218 196 198 191 179 186 197 177 198 190 200 191 200 190 188 206 218 218 212 211 219 218 212 222 226 225 232 239 240 241 227 227 232 216 199 209 205 232 229 235 228 233 222 222 227 208 204 210 212 214 209 207 171 183 187 179 193
330 328 328 329 332 331 325 322 318 308 299 320 15 13 14 347 323 320 289 280 278 266 248 246 241 238 243 236 234 226 218 222 199 191 184 185 182 205 180 198 197 201 194 200 201 192 208 223 217 213 209 214 217 219 215 221 229 229 226 231 230 230 221 214 227 209 201 214 229 228 235 228 231 239 236 230 233 227 198 208 216 209 207 195 175 175 178 196
330 326 326 328 330 329 323 319 308 293 321 337 316 21 349 335 336 318 300 278 294 286 244 234 225 227 228 217 208 218 217 214 219 189 181 186 193 193 205 197 201 202 203 200 210 204 211 212 204 215 211 208 218 216 215 215 220 226 235 225 232 231 221 241 205 215 211 195 233 243 239 239 233 231 228 223 228 239 204 198 215 227 208 202 165 169 185 196
327 326 324 326 330 327 321 317 305 359 314 279 4 357 342 335 334 343 303 286 240 247 241 238 220 220 224 213 202 207 211 232 225 200 178 190 188 186 210 194 211 206 210 202 213 222 221 218 189 206 210 208 215 217 212 214 221 221 227 235 233 235 244 227 247 246 219 226 214 223 240 237 226 231 229 224 220 219 217 198 205 216 216 195 187 181 188 194
326 323 324 324 327 331 314 296 17 334 313 12 359 340 332 330 342 326 300 274 275 265 151 211 159 211 192 197 188 203 201 225 209 216 183 195 199 196 189 207 205 209 207 207 210 224 229 209 213 200 207 208 211 220 211 213 227 223 216 221 235 243 242 246 239 235 216 226 212 213 240 238 225 234 226 228 234 232 216 200 197 205 212 199 205 191 177 188
325 322 321 323 324 334 331 5 327 308 325 354 343 331 327 325 348 312 269 244 266 194 172 89 186 108 207 176 176 170 200 218 197 214 195 184 202 194 208 201 193 230 206 211 206 218 219 218 209 202 205 210 210 215 215 211 220 228 219 210 218 230 240 244 245 244 255 244 254 239 215 247 242 231 232 228 227 229 221 182 201 206 200 211 199 200 188 186
321 320 320 321 318 323 282 294 304 324 350 333 327 327 319 326 305 266 256 298 267 129 134 168 356 125 242 157 181 194 198 99 176 202 206 177 206 193 220 205 204 203 208 202 221 200 210 214 210 196 206 209 213 212 209 204 216 228 223 230 219 220 228 235 239 244 244 248 237 234 243 240 236 234 228 228 232 227 200 192 201 212 201 206 209 201 192 193
320 318 319 319 321 301 282 254 299 306 330 332 323 321 318 305 288 295 274 259 77 132 19 139 274 191 157 161 198 211 217 197 204 177 191 184 203 206 206 217 212 207 215 217 225 207 207 217 211 211 202 215 215 211 207 203 216 219 237 219 228 221 225 224 229 236 238 239 241 234 225 242 245 233 236 232 241 225 205 209 211 204 207 201 220 214 196 190
320 317 318 320 319 290 253 252 261 358 326 334 319 313 304 286 253 233 219 250 234 233 138 96 208 167 184 179 200 205 221 211 259 158 182 191 187 217 221 217 225 214 217 220 230 232 216 200 221 219 209 214 213 210 205 210 221 214 218 230 220 228 226 232 238 228 236 240 236 233 235 242 252 221 224 222 219 233 210 197 204 200 202 197 207 215 205 189
322 320 316 322 305 323 302 277 356 345 329 318 316 307 293 263 246 246 237 257 317 89 204 160 151 166 182 200 198 198 219 213 184 184 175 188 187 203 207 207 224 232 222 220 222 225 234 199 203 220 211 208 220 210 207 214 209 210 211 206 196 210 218 229 218 224 236 240 231 229 234 234 249 230 231 232 225 215 223 206 188 200 201 199 197 211 204 192
322 320 317 318 286 294 292 319 334 318 320 315 310 302 284 262 210 232 228 110 243 34 7 13 23 272 201 212 235 186 205 212 197 190 187 187 187 190 200 205 184 204 215 208 212 208 221 224 202 211 197 207 203 225 192 202 201 203 209 201 204 192 196 206 205 212 221 236 220 223 225 235 238 240 243 226 231 233 215 217 198 200 205 203 196 206 205 192
320 315 313 292 262 245 276 315 307 312 313 309 305 289 260 254 248 221 245 283 43 358 1 310 351 317 306 291 246 234 193 210 196 200 200 191 201 198 203 210 192 208 204 199 211 199 216 223 209 198 197 198 212 206 189 193 197 197 204 196 195 199 194 207 207 225 237 227 231 232 211 237 250 235 225 240 237 224 223 216 208 205 211 202 191 191 206 202
316 312 308 290 293 279 282 289 312 311 310 311 288 276 251 248 253 276 280 259 359 358 321 332 325 303 275 255 244 229 206 205 200 198 198 193 202 200 201 210 211 201 232 195 210 201 201 198 218 192 204 183 208 215 203 196 189 198 204 203 201 216 201 204 207 211 221 234 203 218 233 232 230 224 224 223 227 237 227 220 207 210 220 195 181 179 213 210
311 302 280 253 257 288 326 319 311 314 303 295 283 262 263 253 261 270 261 339 351 346 329 327 304 292 272 259 252 235 228 195 205 198 200 204 199 211 197 201 208 213 204 229 197 213 214 220 205 204 201 185 200 205 215 195 194 197 200 207 208 215 218 229 205 225 218 218 226 195 220 226 239 257 265 237 218 216 220 224 216 200 217 196 189 178 194 214
303 314 312 315 322 347 324 323 314 308 301 289 276 265 251 262 267 243 360 10 339 335 329 310 284 268 263 266 222 247 187 292 186 206 203 212 208 210 206 201 203 208 204 214 190 209 207 218 203 192 202 198 196 197 209 204 201 182 197 207 211 206 226 235 244 234 243 239 233 205 208 218 249 221 215 218 238 216 210 212 214 205 203 208 197 176 186 204
321 311 310 349 297 348 327 324 323 302 289 281 274 265 270 272 284 295 24 352 337 323 316 326 256 319 258 233 236 200 206 215 229 202 206 200 218 213 212 206 201 205 219 211 222 227 217 217 208 194 193 199 193 198 206 208 220 175 205 205 204 220 236 237 236 204 220 234 228 218 214 206 211 232 196 203 210 218 209 209 211 208 201 201 206 189 182 199
312 302 282 252 347 336 336 323 311 297 283 279 265 273 292 282 285 326 339 335 333 320 306 291 301 291 298 270 227 217 193 208 194 206 227 187 216 197 218 214 194 213 210 219 244 204 223 231 200 199 188 188 187 193 207 212 215 222 204 186 203 187 210 212 240 232 213 215 233 226 229 230 206 215 213 204 203 212 210 200 209 207 208 208 204 202 181 192
289 302 332 37 346 345 330 324 293 290 292 281 274 272 275 312 341 316 341 329 315 307 288 283 291 297 294 296 301 303 348 226 212 209 228 184 207 53 30 352 137 49 246 222 222 247 218 242 199 183 183 177 187 190 205 199 200 227 222 200 208 223 210 203 209 242 242 232 214 225 225 235 216 227 213 186 194 199 205 194 209 207 197 198 198 196 184 189
324 317 29 26 1 336 326 295 305 282 268 297 311 297 340 325 340 348 324 321 313 314 298 299 295 293 292 300 318 291 300 308 295 294 238 197 182 52 49 345 1 336 270 236 229 216 231 209 243 165 172 174 197 195 206 194 191 195 217 212 189 221 206 224 203 218 219 233 232 233 212 218 222 207 209 183 177 194 197 198 200 223 194 191 194 191 180 190
302 285 1 15 351 335 309 298 299 334 340 345 321 330 319 325 337 318 329 336 324 306 291 285 285 284 298 310 310 309 275 259 281 282 267 106 33 157 37 352 342 296 281 235 221 212 240 209 231 167 180 196 205 196 205 201 197 197 202 209 200 193 202 202 214 197 223 231 234 242 255 169 85 63 123 200 164 177 201 198 189 204 213 193 186 192 184 185
318 328 350 346 345 327 322 321 357 337 294 351 353 337 333 341 303 333 325 330 317 309 295 285 279 277 280 278 280 289 294 291 273 283 271 239 42 21 15 340 313 319 263 210 206 209 241 273 229 207 189 209 208 194 203 212 200 201 201 209 205 198 209 207 213 194 207 225 243 250 259 176 76 97 159 191 187 189 184 197 194 187 202 201 191 188 185 185
342 329 313 345 348 324 324 334 330 331 349 354 330 303 339 317 325 338 331 347 326 329 309 298 307 320 293 289 272 275 288 283 277 257 283 43 62 29 10 334 333 287 265 237 208 215 86 233 242 235 186 207 203 200 193 213 207 201 205 212 207 209 203 213 209 200 207 197 212 209 232 165 132 122 109 86 9 216 168 188 206 176 200 187 188 194 179 176
318 317 329 14 335 322 326 350 347 346 343 338 332 333 327 331 330 343 337 346 345 336 327 315 312 322 317 314 305 274 290 285 264 260 267 303 266 34 7 336 341 348 309 16 279 168 213 211 238 208 220 192 191 193 193 198 215 209 202 203 211 212 209 212 218 214 220 202 205 205 203 229 128 141 123 244 198 195 161 163 184 191 179 186 171 188 161 145
319 307 334 351 347 317 347 353 336 337 336 337 335 324 345 311 21 347 343 331 337 344 321 328 329 324 319 316 305 298 265 262 289 280 321 311 331 31 7 334 344 350 359 347 320 317 285 203 207 213 203 192 187 190 192 189 202 207 207 202 205 211 208 200 211 201 230 194 209 203 205 135 106 156 186 197 168 138 151 154 161 139 153 176 173 158 94 126
349 324 350 332 348 299 348 332 313 340 322 339 324 330 319 316 332 352 345 325 7 334 330 323 335 327 318 335 309 289 270 256 258 277 298 279 299 160 53 318 346 351 346 325 303 301 255 249 215 226 227 205 217 250 214 196 192 209 201 207 198 211 211 210 210 218 209 201 221 211 233 122 162 137 155 120 136 148 163 65 114 136 151 81 53 74 130 140
327 316 347 332 328 341 339 321 346 333 327 339 303 331 319 318 338 298 19 307 7 326 310 359 338 345 325 331 330 308 293 283 261 264 262 290 322 320 356 314 339 10 320 298 329 306 251 243 226 224 241 242 341 308 343 247 204 205 209 202 206 202 212 208 209 212 197 206 218 186 234 159 149 149 160 190 179 130 120 121 116 122 124 131 127 136 153 166
324 342 326 353 306 315 318 322 329 314 310 303 298 319 327 303 329 326 331 323 323 14 334 220 347 346 322 324 320 308 318 317 302 341 341 347 319 299 250 168 322 36 313 349 325 295 282 232 228 230 230 237 252 345 315 261 218 213 212 209 205 204 203 213 210 213 200 216 215 180 202 230 158 164 166 148 118 151 168 173 175 136 132 127 138 54 163 147
317 319 312 332 302 314 303 308 304 300 297 297 314 297 284 312 324 338 330 319 318 74 22 324 346 339 326 315 315 309 327 323 335 345 6 331 327 310 285 171 180 31 332 343 326 341 285 236 238 225 227 236 223 243 282 266 230 268 262 214 207 206 203 208 214 210 213 210 226 187 189 212 216 157 161 157 163 189 327 289 354 43 181 132 117 163 186 167
328 329 321 318 305 299 296 297 294 291 290 309 288 306 335 311 313 323 320 319 315 16 28 321 326 334 327 314 307 300 308 312 322 325 319 325 310 338 340 20 360 357 331 345 333 34 302 173 16 280 244 233 228 221 226 248 255 256 231 231 208 205 209 204 210 211 212 216 208 211 166 204 210 233 221 203 354 322 294 254 239 242 273 310 353 290 236 241
313 316 314 306 307 310 313 295 295 299 292 283 277 323 320 311 310 323 308 313 310 328 311 316 317 311 306 301 289 286 292 297 297 296 306 298 302 311 312 333 331 324 314 336 342 333 266 307 303 250 232 239 219 216 212 237 245 231 228 223 250 222 207 201 207 205 207 210 212 209 209 203 192 208 242 252 211 270 264 272 282 302 290 264 254 254 265 252
308 310 296 302 294 300 299 298 291 286 276 6 341 304 296 308 302 309 306 308 291 281 235 267 296 300 286 286 292 295 299 288 287 288 294 292 280 275 279 287 296 297 301 307 325 301 347 313 244 199 233 232 215 218 216 223 241 241 234 223 217 217 253 218 212 207 217 220 211 219 215 206 160 164 229 219 223 223 248 258 273 267 269 280 282 284 283 273